Change the Weather History Date:

Friday, December 6, 2013

  Actual Average Record
Temperature  
Mean Temperature 14 °F 29 °F  
Max Temperature 18 °F 36 °F 56 °F (1998)
Min Temperature 10 °F 23 °F -7 °F (1972)
Degree Days  
Heating Degree Days 51 36  
Month to date heating degree days 196 207  
Since 1 July heating degree days 1571 1572  
Cooling Degree Days 0 0  
Month to date cooling degree days 0 0  
Year to date cooling degree days 688 641  
Moisture  
Dew Point 2 °F    
Average Humidity 60    
Maximum Humidity 67    
Minimum Humidity 53    
Precipitation  
Precipitation 0.00 in 0.08 in 0.83 in (1908)
Month to date precipitation 0.31 0.47  
Year to date precipitation 38.54 33.19  
Snow  
Snow 0.00 in 0.40 in 8.00 in (1908)
Month to date snowfall T 1.8  
Since 1 July snowfall 2.0 4.5  
Snow Depth 0.00 in    
Sea Level Pressure  
Sea Level Pressure 30.41 in    
Wind  
Wind Speed 12 mph (WNW)    
Max Wind Speed 20 mph    
Max Gust Speed 27 mph    
Visibility 10 miles    
Events      
T = Trace of Precipitation, MM = Missing Value Source: NWS Daily Summary

Daily Weather History Graph

Daily Weather History Graph

Search for Another Location

Airport or City:

Trip Planner

Search our weather history database for the weather conditions in past years. The results will help you decide how hot, cold, wet, or windy it might be!

Date:

Astronomy

Dec. 06, 2013 Rise Set
Actual Time 7:08 AM CST 4:17 PM CST
Civil Twilight 6:36 AM CST 4:49 PM CST
Nautical Twilight 6:00 AM CST 5:24 PM CST
Astronomical Twilight 5:26 AM CST 5:58 PM CST
Moon 10:10 AM CST (12/6) 8:52 PM CST (12/6)
Length of Visible Light 10h 12m
Length of Day
9h 08m
Waxing Crescent, 19% of the Moon is Illuminated
Dec 6
Waxing Crescent
Dec 9
First Quarter
Dec 17
Full
Dec 25
Last Quarter
Jan 1
New

Hourly Weather History & Observations

Time (CST) Temp. Windchill Dew Point Humidity Pressure Visibility Wind Dir Wind Speed Gust Speed Precip Events Conditions
12:52 AM 18.0 °F 5.4 °F 6.1 °F 60% 30.25 in 10.0 mi WNW 11.5 mph - N/A   Mostly Cloudy
1:52 AM 17.1 °F 5.0 °F 6.1 °F 62% 30.28 in 10.0 mi WNW 10.4 mph - N/A   Mostly Cloudy
2:52 AM 16.0 °F 3.6 °F 6.1 °F 65% 30.30 in 10.0 mi WNW 10.4 mph - N/A   Scattered Clouds
3:52 AM 14.0 °F 2.0 °F 3.9 °F 64% 30.32 in 10.0 mi NW 9.2 mph - N/A   Partly Cloudy
4:52 AM 12.9 °F -0.2 °F 3.9 °F 67% 30.33 in 10.0 mi WNW 10.4 mph - N/A   Partly Cloudy
5:52 AM 12.0 °F -2.0 °F 3.0 °F 67% 30.34 in 10.0 mi WNW 11.5 mph - N/A   Mostly Cloudy
6:52 AM 12.0 °F -2.0 °F 3.0 °F 67% 30.36 in 10.0 mi WNW 11.5 mph - N/A   Overcast
7:52 AM 10.9 °F -5.4 °F 1.0 °F 64% 30.38 in 10.0 mi WNW 15.0 mph - N/A   Mostly Cloudy
8:52 AM 12.0 °F -2.0 °F 1.9 °F 64% 30.39 in 10.0 mi WNW 11.5 mph 21.9 mph N/A   Mostly Cloudy
9:52 AM 12.9 °F -0.9 °F 1.9 °F 62% 30.42 in 10.0 mi WNW 11.5 mph - N/A   Mostly Cloudy
10:52 AM 12.9 °F -0.2 °F 1.9 °F 62% 30.42 in 10.0 mi WNW 10.4 mph - N/A   Mostly Cloudy
11:52 AM 15.1 °F 1.1 °F 1.9 °F 56% 30.42 in 10.0 mi WNW 12.7 mph - N/A   Scattered Clouds
12:52 PM 16.0 °F 3.6 °F 1.9 °F 54% 30.38 in 10.0 mi NW 10.4 mph - N/A   Scattered Clouds
1:52 PM 16.0 °F 2.3 °F 1.9 °F 54% 30.39 in 10.0 mi WNW 12.7 mph - N/A   Scattered Clouds
2:52 PM 18.0 °F 6.1 °F 3.0 °F 52% 30.40 in 10.0 mi West 10.4 mph - N/A   Partly Cloudy
3:52 PM 17.1 °F 3.0 °F 3.0 °F 54% 30.40 in 10.0 mi WNW 13.8 mph - N/A   Partly Cloudy
4:52 PM 16.0 °F 4.4 °F 3.0 °F 57% 30.43 in 10.0 mi NW 9.2 mph - N/A   Partly Cloudy
5:52 PM 15.1 °F 0.5 °F 1.9 °F 56% 30.44 in 10.0 mi WNW 13.8 mph - N/A   Partly Cloudy
6:52 PM 14.0 °F 0.5 °F 1.9 °F 59% 30.46 in 10.0 mi WNW 11.5 mph - N/A   Partly Cloudy
7:52 PM 12.9 °F -3.9 °F 1.0 °F 59% 30.48 in 10.0 mi NW 17.3 mph - N/A   Partly Cloudy
8:52 PM 12.0 °F -3.4 °F 1.0 °F 61% 30.50 in 10.0 mi NW 13.8 mph 20.7 mph N/A   Clear
9:52 PM 10.9 °F -4.1 °F -0.0 °F 61% 30.53 in 10.0 mi NW 12.7 mph - N/A   Clear
10:52 PM 10.9 °F -4.1 °F -0.9 °F 59% 30.54 in 10.0 mi NW 12.7 mph 20.7 mph N/A   Clear
11:52 PM 10.0 °F -5.9 °F -0.9 °F 61% 30.56 in 10.0 mi WNW 13.8 mph - N/A   Clear